Weather Roundup
Issued by NWS

Home | Current Version | Previous Version | Text Only | Print | Product List | Glossary On
Versions: 1 2 3 4 5 6 7 8 9 10 11 12 13 14 15 16 17 18 19 20 21 22 23 24 25 26 27 28 29 30 31 32 33 34 35 36 37 38 39 40 41 42 43 44 45 46 47 48 49 50
000
NZUS93 KARX 140510
HRRWXR

CURRENT HOURLY OBSERVATIONS ACROSS
MUCH OF THE UPPER MISSISSIPPI VALLEY
NATIONAL WEATHER SERVICE LA CROSSE WI
1200 AM CDT MON JUL 14 2014


...SOUTHEAST MINNESOTA...


CITY           SKY/WX    TMP DP  RH WIND       PRES   REMARKS
ROCHESTER      CLEAR     58  52  80 W7        29.94F
ROCHESTER/MAYO FAIR      65  46  50 W6        29.93S
WINONA         CLEAR     63  55  77 CALM      29.91S
AUSTIN         CLEAR     63  46  55 NW2       29.94S
ALBERT LEA     PTCLDY    61  52  72 CALM      29.95S
DODGE CENTER   CLEAR     57  52  82 W6        29.94S
PRESTON        CLEAR     60  53  76 NW7       29.94S
OWATONNA       CLEAR     57  52  82 SW7       29.94S
FARIBAULT      CLEAR     61  50  67 SW5       29.93S
$$

...ELSEWHERE IN MINNESOTA...


CITY           SKY/WX    TMP DP  RH WIND       PRES   REMARKS
MINNEAPOLIS    PTCLDY    65  50  58 W6        29.90S
INTNL FALLS    LGT RAIN  51  49  92 W10       29.80S
DULUTH         PTCLDY    54  47  77 W8        29.86F
RED WING       CLEAR     55  54  94 CALM      29.89S
REDWOOD FALLS  CLEAR     61  50  67 W7        29.94F
MANKATO        CLEAR     61  46  59 SW7       29.93F
WORTHINGTON    CLEAR     57  48  72 W5        30.00S
FAIRMONT       CLEAR     61  48  63 NW5       29.96F
$$

...SOUTHWEST WISCONSIN...


CITY           SKY/WX    TMP DP  RH WIND       PRES   REMARKS
LA CROSSE      MOCLDY    64  59  83 SE6       29.89F
PRAIRIE DU CHI PTCLDY    62  57  86 CALM      29.90F
BOSCOBEL       PTCLDY    59  56  89 CALM      29.91F
LONE ROCK      CLEAR     60  55  83 CALM      29.91F
PLATTEVILLE    CLEAR     64  56  75 SE5       29.93S
FORT MC COY    MOCLDY    57  55  91 CALM      29.91S
CAMP DOUGLAS   MOCLDY    56  56 100 CALM      29.90S
VIROQUA        FAIR      60  54  79 SW3       29.92S
WIS DELLS      PTCLDY    57  54  91 CALM      29.91S
$$

...ELSEWHERE IN WISCONSIN...


CITY           SKY/WX    TMP DP  RH WIND       PRES   REMARKS
MILWAUKEE      MOCLDY    70  51  51 NW5       29.90S
MADISON        PTCLDY    60  57  89 CALM      29.91S
GREEN BAY      CLEAR     62  51  67 SW3       29.87S
EAU CLAIRE     PTCLDY    58  54  86 SW3       29.87F
BLACK RVR FLS  FAIR      53  53 100 CALM      29.90S
MEDFORD        CLEAR     58  52  81 SW3       29.88F
WAUSAU         CLOUDY    62  53  72 CALM      29.87S
WIS RAPIDS     CLEAR     57  53  86 CALM      29.90S
MARSHFIELD     MOCLDY    60  52  74 W6        29.89F
RICE LAKE      CLOUDY    55  53  92 CALM      29.89S
$$

...NORTHEAST IOWA...


CITY           SKY/WX    TMP DP  RH WIND       PRES   REMARKS
WATERLOO       PTCLDY    66  63  90 NW5       29.91S
DUBUQUE        CLEAR     62  59  90 CALM      29.93S
DECORAH          N/A    N/A N/A N/A MISG        N/A
MASON CITY     PTCLDY    61  57  87 NW5       29.96S
CHARLES CITY   MOCLDY    64  59  82 N6        29.94F
OELWEIN        PTCLDY    68  68 100 CALM      29.93S
$$

...ELSEWHERE IN IOWA...


CITY           SKY/WX    TMP DP  RH WIND       PRES   REMARKS
DES MOINES     MOCLDY    74  65  73 SW6       29.93F
IOWA CITY      CLEAR     67  65  93 CALM      29.93F
FORT DODGE     MOCLDY    70  63  78 N5        29.96S
MARSHALLTOWN     N/A     67  63  87 SW3       29.92S
CEDAR RAPIDS   CLEAR     66  65  96 SW5       29.91F
$$

...NORTHERN ILLINOIS...


CITY           SKY/WX    TMP DP  RH WIND       PRES   REMARKS
CHICAGO-OHARE  PTCLDY    72  50  45 NW10      29.90S
DUPAGE         PTCLDY    69  58  67 NW7       29.91F
CHICAGO-MIDWAY PTCLDY    75  64  68 W8        29.90S
MOLINE         CLEAR     66  64  93 CALM      29.92S
ROCKFORD       PTCLDY    67  52  58 NW3       29.92F
STERLING         N/A     66  64  94 CALM      29.92F VSB 3/4
PEORIA         MOCLDY    73  65  75 CALM      29.93S
$$

NOTE: "FAIR" INDICATES FEW OR NO CLOUDS BELOW 12,000 FEET WITH NO
SIGNIFICANT WEATHER AND/OR OBSTRUCTIONS TO VISIBILITY. WIND
SPEEDS ARE IN MILES-PER-HOUR.



USA.gov is the U.S. government's official web portal to all federal, state and local government web resources and services.